sat.trackr.live / text

‹ back to catalog

CENTISPACE-1 GROUP 05 O*

NORAD 69584 · 2026-138C

PAYLOAD ACTIVE UNKNOWN

§ Identity

Operator
Country
PRC
Launch date
2026-06-17
Launch site
JSC
Launch vehicle
Mass (kg)
RCS (m²)

External: N2YO · Heavens-Above · Gunter

§ Orbital elements

Epoch: 2026-09-17T10:30:42.187392Z

Period
102.40 min
Inclination
55.1417°
Eccentricity
0.0007268
Mean motion
14.06258098 rev/d
Perigee alt
866.9 km
Apogee alt
877.5 km
Semi-major
7,250.3 km
B*
7.5846e-5
RAAN
301.2052°
Arg perigee
305.2309°
Mean anomaly
54.7980°
Rev number
1,307

§ Raw data

CENTISPACE-1 GROUP 05 O*1 69584U 26138C   26260.43798828 -.00000024  00000+0  75846-4 0  99972 69584  55.1417 301.2052 0007268 305.2309  54.7980 14.06258098 13072

JSON: /api/v1/satellites/69584 · /tle

For live sub-satellite position, see the globe view (requires WebGL).

§ Visibility from observer

Set your observer location to see the next 7 days of passes ≥ 10°. The values pass through the URL so the page stays shareable.

No JS? Fill the form by hand. The geolocation button needs JavaScript.